Time,TemperatureF,DewpointF,PressureIn,WindDirection,WindDirectionDegrees,WindSpeedMPH,WindSpeedGustMPH,Humidity,HourlyPrecipIn,Conditions,Clouds,dailyrainin,SolarRadiationWatts/m^2,SoftwareType,DateUTC
2013-04-22 00:02:00,45.0,26.0,-100.00,WSW,248,10.0,14.0,47,-99.99,,,-99.99,-0.100000,,2013-04-22 06:02:00,
2013-04-22 00:11:00,45.0,26.0,-100.00,WSW,244,10.0,13.0,48,-99.99,,,-99.99,-0.100000,,2013-04-22 06:11:00,
2013-04-22 00:21:00,44.0,26.0,-100.00,SW,229,8.0,11.0,49,-99.99,,,-99.99,-0.100000,,2013-04-22 06:21:00,
2013-04-22 00:32:00,44.0,26.0,-100.00,WSW,240,11.0,15.0,49,-99.99,,,-99.99,-0.100000,,2013-04-22 06:32:00,
2013-04-22 00:41:00,45.0,26.0,-100.00,SW,233,9.0,12.0,48,-99.99,,,-99.99,-0.100000,,2013-04-22 06:41:00,
2013-04-22 00:51:00,44.0,26.0,-100.00,WSW,240,11.0,16.0,49,-99.99,,,-99.99,-0.100000,,2013-04-22 06:51:00,
2013-04-22 01:01:00,45.0,27.0,-100.00,WSW,244,13.0,17.0,49,-99.99,,,-99.99,-0.100000,,2013-04-22 07:01:00,
2013-04-22 01:11:00,44.0,27.0,-100.00,WSW,250,13.0,16.0,49,-99.99,,,-99.99,-0.100000,,2013-04-22 07:11:00,
2013-04-22 01:21:00,44.0,27.0,-100.00,WSW,249,9.0,13.0,51,-99.99,,,-99.99,-0.100000,,2013-04-22 07:21:00,
2013-04-22 01:31:00,43.0,27.0,-100.00,WSW,245,8.0,12.0,52,-99.99,,,-99.99,0.000000,,2013-04-22 07:31:00,
2013-04-22 01:42:00,41.0,27.0,-100.00,WSW,252,4.0,7.0,56,-99.99,,,-99.99,-0.200000,,2013-04-22 07:42:00,
2013-04-22 01:52:00,38.0,26.0,-100.00,WSW,247,4.0,6.0,62,-99.99,,,-99.99,-0.100000,,2013-04-22 07:52:00,
2013-04-22 02:01:00,40.0,27.0,-100.00,SW,233,8.0,12.0,58,-99.99,,,-99.99,0.000000,,2013-04-22 08:01:00,
2013-04-22 02:11:00,41.0,27.0,-100.00,SW,232,9.0,12.0,56,-99.99,,,-99.99,-0.100000,,2013-04-22 08:11:00,
2013-04-22 02:21:00,41.0,27.0,-100.00,SW,232,9.0,12.0,57,-99.99,,,-99.99,-0.100000,,2013-04-22 08:21:00,
2013-04-22 02:32:00,41.0,27.0,-100.00,SW,231,11.0,16.0,58,-99.99,,,-99.99,-0.100000,,2013-04-22 08:32:00,
2013-04-22 02:41:00,40.0,27.0,-100.00,SW,230,10.0,15.0,58,-99.99,,,-99.99,0.000000,,2013-04-22 08:41:00,
2013-04-22 02:52:00,40.0,27.0,-100.00,SW,234,11.0,15.0,58,-99.99,,,-99.99,-0.100000,,2013-04-22 08:52:00,
2013-04-22 03:01:00,40.0,27.0,-100.00,WSW,249,15.0,19.0,58,-99.99,,,-99.99,-0.100000,,2013-04-22 09:01:00,
2013-04-22 03:11:00,40.0,27.0,-100.00,WSW,257,13.0,19.0,59,-99.99,,,-99.99,-0.100000,,2013-04-22 09:11:00,
2013-04-22 03:21:00,37.0,26.0,-100.00,North,352,7.0,9.0,65,-99.99,,,-99.99,-0.100000,,2013-04-22 09:21:00,
2013-04-22 03:32:00,39.0,27.0,-100.00,NW,321,11.0,15.0,63,-99.99,,,-99.99,-0.100000,,2013-04-22 09:32:00,
2013-04-22 03:42:00,39.0,27.0,-100.00,NW,311,10.0,11.0,62,-99.99,,,-99.99,-0.100000,,2013-04-22 09:42:00,
2013-04-22 03:52:00,38.0,27.0,-100.00,NW,311,10.0,12.0,63,-99.99,,,-99.99,0.000000,,2013-04-22 09:52:00,
2013-04-22 04:03:00,38.0,27.0,-100.00,WNW,299,8.0,9.0,63,-99.99,,,-99.99,0.000000,,2013-04-22 10:03:00,
2013-04-22 04:12:00,39.0,27.0,-100.00,NW,310,9.0,11.0,63,-99.99,,,-99.99,0.000000,,2013-04-22 10:12:00,
2013-04-22 04:22:00,40.0,28.0,-100.00,NW,315,10.0,12.0,61,-99.99,,,-99.99,-0.100000,,2013-04-22 10:22:00,
2013-04-22 04:32:00,39.0,28.0,-100.00,NW,319,7.0,9.0,62,-99.99,,,-99.99,0.000000,,2013-04-22 10:32:00,
2013-04-22 04:42:00,39.0,28.0,-100.00,NW,313,6.0,8.0,64,-99.99,,,-99.99,-0.100000,,2013-04-22 10:42:00,
2013-04-22 04:52:00,39.0,29.0,-100.00,West,279,6.0,9.0,66,-99.99,,,-99.99,-0.100000,,2013-04-22 10:52:00,
2013-04-22 05:02:00,40.0,29.0,-100.00,West,275,8.0,11.0,63,-99.99,,,-99.99,-0.100000,,2013-04-22 11:02:00,
2013-04-22 05:11:00,40.0,28.0,-100.00,West,262,6.0,11.0,62,-99.99,,,-99.99,-0.100000,,2013-04-22 11:11:00,
2013-04-22 05:22:00,38.0,28.0,-100.00,NNW,341,5.0,6.0,64,-99.99,,,-99.99,-0.100000,,2013-04-22 11:22:00,
2013-04-22 05:32:00,38.0,28.0,-100.00,NNW,329,5.0,6.0,65,-99.99,,,-99.99,-0.100000,,2013-04-22 11:32:00,
2013-04-22 05:42:00,39.0,28.0,-100.00,NNW,337,2.0,3.0,64,-99.99,,,-99.99,-0.100000,,2013-04-22 11:42:00,
2013-04-22 05:52:00,38.0,27.0,-100.00,North,9,4.0,5.0,65,-99.99,,,-99.99,-0.100000,,2013-04-22 11:52:00,
2013-04-22 06:01:00,38.0,27.0,-100.00,NW,326,6.0,11.0,65,-99.99,,,-99.99,-0.100000,,2013-04-22 12:01:00,
2013-04-22 06:12:00,39.0,28.0,-100.00,WNW,283,7.0,10.0,63,-99.99,,,-99.99,-0.100000,,2013-04-22 12:12:00,
2013-04-22 06:21:00,37.0,27.0,-100.00,NNW,331,6.0,11.0,66,-99.99,,,-99.99,-0.100000,,2013-04-22 12:21:00,
2013-04-22 06:31:00,36.0,27.0,-100.00,NW,313,6.0,10.0,67,-99.99,,,-99.99,0.000000,,2013-04-22 12:31:00,
2013-04-22 06:42:00,36.0,26.0,-100.00,NNW,348,4.0,6.0,68,-99.99,,,-99.99,0.300000,,2013-04-22 12:42:00,
2013-04-22 06:52:00,36.0,26.0,-100.00,NW,317,7.0,9.0,67,-99.99,,,-99.99,1.800000,,2013-04-22 12:52:00,
2013-04-22 07:01:00,36.0,26.0,-100.00,WNW,293,5.0,7.0,67,-99.99,,,-99.99,5.200000,,2013-04-22 13:01:00,
2013-04-22 07:11:00,36.0,26.0,-100.00,WNW,293,9.0,11.0,67,-99.99,,,-99.99,9.800000,,2013-04-22 13:11:00,
2013-04-22 07:22:00,34.0,26.0,-100.00,WNW,295,9.0,12.0,71,-99.99,,,-99.99,36.500000,,2013-04-22 13:22:00,
2013-04-22 07:31:00,35.0,27.0,-100.00,WNW,296,8.0,10.0,70,-99.99,,,-99.99,40.599998,,2013-04-22 13:31:00,
2013-04-22 07:41:00,35.0,27.0,-100.00,West,276,12.0,16.0,70,-99.99,,,-99.99,30.900000,,2013-04-22 13:41:00,
2013-04-22 07:52:00,36.0,27.0,-100.00,West,271,12.0,15.0,69,-99.99,,,-99.99,36.700001,,2013-04-22 13:52:00,
2013-04-22 08:01:00,36.0,27.0,-100.00,NW,324,11.0,14.0,69,-99.99,,,-99.99,48.500000,,2013-04-22 14:01:00,
2013-04-22 08:11:00,35.0,30.0,-100.00,NNW,344,14.0,17.0,80,-99.99,,,-99.99,11.500000,,2013-04-22 14:11:00,
2013-04-22 08:21:00,34.0,29.0,-100.00,NNE,20,13.0,17.0,83,-99.99,,,-99.99,23.900000,,2013-04-22 14:21:00,
2013-04-22 08:33:00,33.0,29.0,-100.00,NNE,28,15.0,21.0,84,-99.99,,,-99.99,29.100000,,2013-04-22 14:33:00,
2013-04-22 08:42:00,32.0,28.0,-100.00,NNE,29,17.0,22.0,85,-99.99,,,-99.99,27.700001,,2013-04-22 14:42:00,
2013-04-22 08:51:00,32.0,29.0,-100.00,NE,35,17.0,19.0,87,-99.99,,,-99.99,30.500000,,2013-04-22 14:51:00,
2013-04-22 09:01:00,32.0,29.0,-100.00,NE,42,17.0,20.0,90,-99.99,,,-99.99,38.700001,,2013-04-22 15:01:00,
2013-04-22 09:11:00,31.0,29.0,-100.00,NE,36,16.0,19.0,91,-99.99,,,-99.99,42.000000,,2013-04-22 15:11:00,
2013-04-22 09:22:00,31.0,29.0,-100.00,NE,42,15.0,17.0,92,-99.99,,,-99.99,65.300003,,2013-04-22 15:22:00,
2013-04-22 09:33:00,31.0,29.0,-100.00,NE,44,10.0,13.0,92,-99.99,,,-99.99,93.699997,,2013-04-22 15:33:00,
2013-04-22 09:42:00,31.0,29.0,-100.00,NE,35,10.0,13.0,93,-99.99,,,-99.99,108.099998,,2013-04-22 15:42:00,
2013-04-22 09:53:00,31.0,29.0,-100.00,NE,34,8.0,10.0,93,-99.99,,,-99.99,116.000000,,2013-04-22 15:53:00,
2013-04-22 10:02:00,31.0,29.0,-100.00,NE,36,8.0,11.0,92,-99.99,,,-99.99,87.099998,,2013-04-22 16:02:00,
2013-04-22 10:12:00,31.0,29.0,-100.00,NE,40,10.0,13.0,90,-99.99,,,-99.99,71.300003,,2013-04-22 16:12:00,
2013-04-22 10:22:00,31.0,28.0,-100.00,NE,46,12.0,13.0,88,-99.99,,,-99.99,91.699997,,2013-04-22 16:22:00,
2013-04-22 10:32:00,32.0,28.0,-100.00,ENE,65,9.0,11.0,86,-99.99,,,-99.99,161.500000,,2013-04-22 16:32:00,
2013-04-22 10:41:00,32.0,28.0,-100.00,NE,46,7.0,10.0,83,-99.99,,,-99.99,221.399994,,2013-04-22 16:41:00,
2013-04-22 10:52:00,33.0,27.0,-100.00,NNE,29,6.0,9.0,80,-99.99,,,-99.99,283.200012,,2013-04-22 16:52:00,
2013-04-22 11:02:00,33.0,26.0,-100.00,NNE,32,7.0,10.0,75,-99.99,,,-99.99,197.300003,,2013-04-22 17:02:00,
2013-04-22 11:12:00,33.0,26.0,-100.00,NE,50,8.0,11.0,72,-99.99,,,-99.99,131.600006,,2013-04-22 17:12:00,
2013-04-22 11:21:00,34.0,26.0,-100.00,ENE,61,8.0,11.0,71,-99.99,,,-99.99,159.500000,,2013-04-22 17:21:00,
2013-04-22 11:31:00,34.0,25.0,-100.00,ENE,59,5.0,6.0,68,-99.99,,,-99.99,291.100006,,2013-04-22 17:31:00,
2013-04-22 11:42:00,35.0,24.0,-100.00,ENE,76,5.0,12.0,64,-99.99,,,-99.99,392.600006,,2013-04-22 17:42:00,
2013-04-22 11:51:00,36.0,24.0,-100.00,ENE,67,5.0,7.0,62,-99.99,,,-99.99,423.399994,,2013-04-22 17:51:00,
2013-04-22 12:01:00,36.0,24.0,-100.00,ESE,111,5.0,9.0,61,-99.99,,,-99.99,511.899994,,2013-04-22 18:01:00,
2013-04-22 12:12:00,36.0,24.0,-100.00,NE,56,5.0,9.0,61,-99.99,,,-99.99,487.600006,,2013-04-22 18:12:00,
2013-04-22 12:21:00,37.0,24.0,-100.00,NE,56,8.0,16.0,60,-99.99,,,-99.99,533.500000,,2013-04-22 18:21:00,
2013-04-22 12:31:00,37.0,24.0,-100.00,NNE,19,9.0,15.0,57,-99.99,,,-99.99,590.700012,,2013-04-22 18:31:00,
2013-04-22 12:42:00,39.0,25.0,-100.00,NE,51,17.0,21.0,57,-99.99,,,-99.99,581.099976,,2013-04-22 18:42:00,
2013-04-22 12:52:00,39.0,22.0,-100.00,ENE,57,12.0,15.0,51,-99.99,,,-99.99,701.799988,,2013-04-22 18:52:00,
2013-04-22 13:01:00,40.0,22.0,-100.00,ENE,57,12.0,16.0,48,-99.99,,,-99.99,795.400024,,2013-04-22 19:01:00,
2013-04-22 13:11:00,42.0,22.0,-100.00,NE,39,15.0,22.0,46,-99.99,,,-99.99,836.000000,,2013-04-22 19:11:00,
2013-04-22 13:21:00,41.0,21.0,-100.00,NNE,33,16.0,21.0,43,-99.99,,,-99.99,614.700012,,2013-04-22 19:21:00,
2013-04-22 13:32:00,41.0,20.0,-100.00,NE,41,17.0,24.0,41,-99.99,,,-99.99,593.099976,,2013-04-22 19:32:00,
2013-04-22 13:42:00,41.0,20.0,-100.00,NE,47,12.0,18.0,43,-99.99,,,-99.99,514.799988,,2013-04-22 19:42:00,
2013-04-22 13:52:00,41.0,20.0,-100.00,NE,50,16.0,27.0,43,-99.99,,,-99.99,379.700012,,2013-04-22 19:52:00,
2013-04-22 14:01:00,42.0,19.0,-100.00,NE,42,13.0,21.0,41,-99.99,,,-99.99,624.200012,,2013-04-22 20:01:00,
2013-04-22 14:11:00,43.0,18.0,-100.00,NE,50,15.0,20.0,36,-99.99,,,-99.99,639.599976,,2013-04-22 20:11:00,
2013-04-22 14:22:00,43.0,17.0,-100.00,NE,36,16.0,21.0,34,-99.99,,,-99.99,387.899994,,2013-04-22 20:22:00,
2013-04-22 14:31:00,43.0,16.0,-100.00,NE,39,11.0,17.0,33,-99.99,,,-99.99,824.000000,,2013-04-22 20:31:00,
2013-04-22 14:41:00,43.0,17.0,-100.00,ENE,63,13.0,18.0,34,-99.99,,,-99.99,562.799988,,2013-04-22 20:41:00,
2013-04-22 14:51:00,44.0,15.0,-100.00,NE,42,16.0,24.0,31,-99.99,,,-99.99,453.000000,,2013-04-22 20:51:00,
2013-04-22 15:01:00,44.0,15.0,-100.00,NNE,24,15.0,22.0,31,-99.99,,,-99.99,647.400024,,2013-04-22 21:01:00,
2013-04-22 15:11:00,44.0,14.0,-100.00,NNE,32,17.0,26.0,30,-99.99,,,-99.99,489.000000,,2013-04-22 21:11:00,
2013-04-22 15:21:00,44.0,15.0,-100.00,NNE,26,13.0,19.0,30,-99.99,,,-99.99,475.100006,,2013-04-22 21:21:00,
2013-04-22 15:32:00,45.0,15.0,-100.00,NE,51,17.0,23.0,29,-99.99,,,-99.99,437.299988,,2013-04-22 21:32:00,
2013-04-22 15:42:00,44.0,14.0,-100.00,NE,51,21.0,26.0,28,-99.99,,,-99.99,345.399994,,2013-04-22 21:42:00,
2013-04-22 15:52:00,44.0,13.0,-100.00,NE,38,15.0,24.0,28,-99.99,,,-99.99,350.899994,,2013-04-22 21:52:00,
2013-04-22 16:02:00,44.0,12.0,-100.00,NE,41,17.0,23.0,27,-99.99,,,-99.99,380.700012,,2013-04-22 22:02:00,
2013-04-22 16:12:00,44.0,13.0,-100.00,NE,48,15.0,26.0,27,-99.99,,,-99.99,403.600006,,2013-04-22 22:12:00,
2013-04-22 16:22:00,44.0,13.0,-100.00,NE,49,11.0,17.0,27,-99.99,,,-99.99,501.700012,,2013-04-22 22:22:00,
2013-04-22 16:32:00,44.0,12.0,-100.00,NNE,27,12.0,19.0,27,-99.99,,,-99.99,459.899994,,2013-04-22 22:32:00,
2013-04-22 16:41:00,45.0,13.0,-100.00,North,10,18.0,29.0,26,-99.99,,,-99.99,500.700012,,2013-04-22 22:41:00,
2013-04-22 16:52:00,44.0,12.0,-100.00,NNE,19,18.0,23.0,26,-99.99,,,-99.99,435.399994,,2013-04-22 22:52:00,
2013-04-22 17:02:00,45.0,12.0,-100.00,NNE,13,16.0,23.0,26,-99.99,,,-99.99,432.399994,,2013-04-22 23:02:00,
2013-04-22 17:11:00,45.0,11.0,-100.00,North,5,15.0,21.0,24,-99.99,,,-99.99,336.399994,,2013-04-22 23:11:00,
2013-04-22 17:21:00,44.0,12.0,-100.00,NE,43,17.0,34.0,26,-99.99,,,-99.99,221.699997,,2013-04-22 23:21:00,
2013-04-22 17:32:00,44.0,12.0,-100.00,NE,38,18.0,25.0,26,-99.99,,,-99.99,245.000000,,2013-04-22 23:32:00,
2013-04-22 17:42:00,44.0,11.0,-100.00,North,5,17.0,23.0,26,-99.99,,,-99.99,289.299988,,2013-04-22 23:42:00,
2013-04-22 17:52:00,45.0,11.0,-100.00,North,10,18.0,22.0,25,-99.99,,,-99.99,262.600006,,2013-04-22 23:52:00,
2013-04-22 18:01:00,45.0,12.0,-100.00,NNE,18,20.0,26.0,25,-99.99,,,-99.99,299.600006,,2013-04-23 00:01:00,
2013-04-22 18:11:00,45.0,11.0,-100.00,NNE,20,22.0,32.0,25,-99.99,,,-99.99,341.500000,,2013-04-23 00:11:00,
2013-04-22 18:21:00,44.0,11.0,-100.00,North,4,19.0,25.0,25,-99.99,,,-99.99,207.600006,,2013-04-23 00:21:00,
2013-04-22 18:31:00,44.0,11.0,-100.00,NNE,18,20.0,26.0,25,-99.99,,,-99.99,164.000000,,2013-04-23 00:31:00,
2013-04-22 18:41:00,43.0,10.0,-100.00,NNE,22,18.0,22.0,25,-99.99,,,-99.99,298.500000,,2013-04-23 00:41:00,
2013-04-22 18:51:00,43.0,10.0,-100.00,NNE,16,20.0,24.0,25,-99.99,,,-99.99,107.300003,,2013-04-23 00:51:00,
2013-04-22 19:01:00,43.0,10.0,-100.00,NNE,19,19.0,23.0,26,-99.99,,,-99.99,161.000000,,2013-04-23 01:01:00,
2013-04-22 19:11:00,43.0,10.0,-100.00,NNE,13,19.0,23.0,25,-99.99,,,-99.99,172.100006,,2013-04-23 01:11:00,
2013-04-22 19:21:00,43.0,10.0,-100.00,NNE,23,18.0,21.0,25,-99.99,,,-99.99,213.000000,,2013-04-23 01:21:00,
2013-04-22 19:31:00,43.0,11.0,-100.00,NNE,33,17.0,23.0,26,-99.99,,,-99.99,200.300003,,2013-04-23 01:31:00,
2013-04-22 19:41:00,43.0,10.0,-100.00,NNE,27,17.0,21.0,26,-99.99,,,-99.99,156.000000,,2013-04-23 01:41:00,
2013-04-22 19:52:00,42.0,10.0,-100.00,NNE,29,17.0,20.0,26,-99.99,,,-99.99,118.900002,,2013-04-23 01:52:00,
2013-04-22 20:01:00,41.0,11.0,-100.00,NE,34,17.0,22.0,28,-99.99,,,-99.99,85.699997,,2013-04-23 02:01:00,
2013-04-22 20:12:00,40.0,10.0,-100.00,NNE,27,19.0,22.0,28,-99.99,,,-99.99,35.299999,,2013-04-23 02:12:00,
2013-04-22 20:21:00,39.0,10.0,-100.00,NNE,24,16.0,19.0,30,-99.99,,,-99.99,22.900000,,2013-04-23 02:21:00,
2013-04-22 20:32:00,38.0,10.0,-100.00,NNE,23,15.0,18.0,31,-99.99,,,-99.99,11.600000,,2013-04-23 02:32:00,
2013-04-22 20:41:00,37.0,11.0,-100.00,NNE,26,15.0,17.0,33,-99.99,,,-99.99,3.800000,,2013-04-23 02:41:00,
2013-04-22 20:52:00,37.0,11.0,-100.00,NNE,26,16.0,19.0,34,-99.99,,,-99.99,1.000000,,2013-04-23 02:52:00,
2013-04-22 21:01:00,36.0,10.0,-100.00,NNE,25,16.0,21.0,33,-99.99,,,-99.99,0.100000,,2013-04-23 03:01:00,
2013-04-22 21:11:00,36.0,8.0,-100.00,NNE,24,18.0,22.0,31,-99.99,,,-99.99,-0.100000,,2013-04-23 03:11:00,
2013-04-22 21:21:00,35.0,8.0,-100.00,NNE,24,17.0,20.0,32,-99.99,,,-99.99,-0.100000,,2013-04-23 03:21:00,
2013-04-22 21:32:00,35.0,9.0,-100.00,NNE,25,17.0,20.0,33,-99.99,,,-99.99,-0.100000,,2013-04-23 03:32:00,
2013-04-22 21:43:00,34.0,9.0,-100.00,NNE,25,16.0,19.0,33,-99.99,,,-99.99,-0.100000,,2013-04-23 03:43:00,
2013-04-22 21:52:00,34.0,9.0,-100.00,NNE,26,16.0,19.0,35,-99.99,,,-99.99,-0.100000,,2013-04-23 03:52:00,
2013-04-22 22:02:00,34.0,9.0,-100.00,NNE,27,18.0,22.0,35,-99.99,,,-99.99,0.000000,,2013-04-23 04:02:00,
2013-04-22 22:12:00,33.0,9.0,-100.00,NNE,28,16.0,19.0,36,-99.99,,,-99.99,-0.100000,,2013-04-23 04:12:00,
2013-04-22 22:22:00,33.0,10.0,-100.00,NNE,27,15.0,19.0,38,-99.99,,,-99.99,-0.100000,,2013-04-23 04:22:00,
2013-04-22 22:32:00,32.0,10.0,-100.00,NNE,24,15.0,18.0,38,-99.99,,,-99.99,-0.100000,,2013-04-23 04:32:00,
2013-04-22 22:43:00,32.0,9.0,-100.00,NNE,26,15.0,19.0,38,-99.99,,,-99.99,-0.100000,,2013-04-23 04:43:00,
2013-04-22 22:52:00,32.0,10.0,-100.00,NNE,27,15.0,20.0,40,-99.99,,,-99.99,-0.100000,,2013-04-23 04:52:00,
2013-04-22 23:02:00,32.0,10.0,-100.00,NNE,26,15.0,17.0,40,-99.99,,,-99.99,-0.100000,,2013-04-23 05:02:00,
2013-04-22 23:12:00,31.0,10.0,-100.00,NNE,27,15.0,19.0,40,-99.99,,,-99.99,-0.100000,,2013-04-23 05:12:00,
2013-04-22 23:21:00,31.0,10.0,-100.00,NE,39,13.0,18.0,40,-99.99,,,-99.99,-0.100000,,2013-04-23 05:21:00,
2013-04-22 23:32:00,31.0,9.0,-100.00,NE,41,13.0,16.0,40,-99.99,,,-99.99,-0.100000,,2013-04-23 05:32:00,
2013-04-22 23:42:00,31.0,9.0,-100.00,NE,39,17.0,20.0,38,-99.99,,,-99.99,-0.100000,,2013-04-23 05:42:00,
2013-04-22 23:52:00,31.0,9.0,-100.00,NE,40,15.0,19.0,38,-99.99,,,-99.99,-0.100000,,2013-04-23 05:52:00,